Regional Weather Roundup
Issued by NWS

Home | Current Version | Previous Version | Graphics & Text | Print | Product List | Glossary On
Versions: 1 2 3 4 5 6 7 8 9 10 11 12 13 14 15 16 17 18 19 20 21 22 23 24 25 26 27 28 29 30 31 32 33 34 35 36 37 38 39 40 41 42 43 44 45 46 47 48 49 50
000
ASUS43 KFSD 021410
RWRSD

WEATHER ROUNDUP FOR SOUTH DAKOTA
NATIONAL WEATHER SERVICE SIOUX FALLS SD
900 AM CDT TUE JUN 02 2015

NOTE: "FAIR" INDICATES FEW OR NO CLOUDS BELOW 12,000 FEET WITH NO
SIGNIFICANT WEATHER AND/OR OBSTRUCTIONS TO VISIBILITY.


SDZ001>005-009-010-012>017-021500-
NORTHWEST AND NORTH CENTRAL SOUTH DAKOTA

CITY           SKY/WX    TMP DP  RH WIND       PRES   REMARKS
BUFFALO          N/A     64  56  75 SW6       29.78S
FAITH            N/A     68  61  78 E9        29.77S
MOBRIDGE       MOSUNNY   70  64  81 SE17      29.73F
$$

SDZ012>016-024>037-041>051-057-063-072>074-021500-
SOUTHWEST AND SOUTH CENTRAL SOUTH DAKOTA

CITY           SKY/WX    TMP DP  RH WIND       PRES   REMARKS
RAPID CTY ARPT MOSUNNY   68  55  63 NW18      29.82S
PIERRE         MOSUNNY   69  62  78 SE15      29.75F
CUSTER         SUNNY     65  45  48 W8        29.95R
ELLSWORTH AFB  MOSUNNY   67  56  68 NW18      29.82S
PHILIP         MOSUNNY   72  58  61 W6        29.75S
PINE RIDGE     PTSUNNY   66  55  67 SW7       29.85R
SPEARFISH      FAIR      64  55  72 W6        29.89F
WINNER         FAIR      70  59  68 S13       29.83R
$$

SDZ004>011-016>023-039-040-021500-
NORTHEAST SOUTH DAKOTA

CITY           SKY/WX    TMP DP  RH WIND       PRES   REMARKS
ABERDEEN       CLOUDY    61  57  87 S17G25    29.85R
WATERTOWN      PTSUNNY   65  55  70 S17       29.93R
BROOKINGS      PTSUNNY   63  54  72 S20G31    29.93S
SISSETON         N/A     64  56  75 SW6       29.92R
$$

SDZ017-020-022-023-036>040-048>070-021500-
SOUTHEAST SOUTH DAKOTA

CITY           SKY/WX    TMP DP  RH WIND       PRES   REMARKS
SIOUX FALLS    PTSUNNY   62  54  74 S16G25    29.95F
HURON          PTSUNNY   65  56  72 S17G24    29.87F
CHAMBERLAIN    PTSUNNY   66  59  78 S13G22    29.84R
MITCHELL       PTSUNNY   66  57  72 S18       29.88R
YANKTON        MOSUNNY   64  55  72 SE21      29.92S
$$

ABBREVIATIONS USED IN REMARKS
   TC - TEMPERATURE IN CELSIUS
  WCI - WIND CHILL INDEX
   HX - HEAT INDEX
  VSB - VISIBILITY




USA.gov is the U.S. government's official web portal to all federal, state and local government web resources and services.